Other Public Products
Issued by NWS Grand Forks, ND

Home | Current Version | Previous Version | Graphics & Text | Print | Product List | Glossary Off
Versions: 1 2 3 4 5 6 7 8 9 10 11 12 13 14 15 16 17 18 19 20 21 22 23 24 25 26 27 28 29 30 31 32 33 34 35 36 37 38 39 40 41 42 43 44 45 46 47 48 49 50

000
FPUS83 KFGF 270610
OPUFGF
PRAIRIE TO PINES WEATHER ROUNDUP
NATIONAL WEATHER SERVICE EASTERN NORTH DAKOTA/GRAND FORKS ND
100 AM CDT THU APR 27 2017

 **SATELLITE DATA USED TO AUGMENT SKY COVER AT AUTOMATED STATIONS**
 *****  WEATHER ACROSS EASTERN NORTH DAKOTA  *****

CITY           SKY/WX    TMP DP  RH WIND       PRES   REMARKS
GRAND FORKS    LGT SNOW  31  29  92 N17       29.75F FOG     WCI  19
6HR MIN TEMP:  31; 6HR MAX TEMP:  32; 6HR PCP:  0.03;

GRAND FORKS AF MIX PCPN  28  28 100 NE16      29.75F FOG     WCI  17
GRAND CITY NWS NOT AVBL
BUXTON         NOT AVBL
DEVILS LAKE    CLOUDY    31  27  85 CALM      29.76F
6HR MIN TEMP:  31; 6HR MAX TEMP:  37;

FARGO          FLURRIES  28  26  92 N15       29.71R WCI  16
6HR MIN TEMP:  28; 6HR MAX TEMP:  30; 6HR PCP:  0.06;

WAHPETON ARPT  CLOUDY    28  27  93 N10       29.69S WCI  19
$$

 *****  WEATHER ACROSS CENTRAL AND WESTERN NORTH DAKOTA  *****

CITY           SKY/WX    TMP DP  RH WIND       PRES   REMARKS
JAMESTOWN      CLOUDY    29  25  85 N10       29.73F WCI  20
6HR MIN TEMP:  29; 6HR MAX TEMP:  31;

BISMARCK       CLOUDY    36  28  73 N5        29.77F
6HR MIN TEMP:  36; 6HR MAX TEMP:  44;

MINOT          FAIR      27  23  85 NW3       29.79S
6HR MIN TEMP:  27; 6HR MAX TEMP:  49;

MINOT AFB      FAIR      31  24  75 NE5       29.79S
6HR MIN TEMP:  30; 6HR MAX TEMP:  48;

GARRISON         N/A     28  25  88 NE5       29.77S WCI  23
6HR MIN TEMP:  27; 6HR MAX TEMP:  47;

WILLISTON      FAIR      33  23  66 N7        29.76F
6HR MIN TEMP:  33; 6HR MAX TEMP:  51;

DICKINSON      FAIR      26  21  81 SE8       29.72S WCI  18
6HR MIN TEMP:  26; 6HR MAX TEMP:  45;

HETTINGER      FAIR      28  23  81 E8        29.73F WCI  20
6HR MIN TEMP:  28; 6HR MAX TEMP:  48;

$$

 *****  OTHER OBSERVATIONS NORTHEAST NORTH DAKOTA  *****

CITY           SKY/WX    TMP DP  RH WIND       PRES   REMARKS
WALHALLA       NOT AVBL
LANGDON        FAIR      32  21  64 NE10      29.76F WCI  24
CAVALIER       NOT AVBL
GRAFTON        LGT SNOW  30  28  93 NE17      29.79F WCI  18
CANDO          NOT AVBL
FORT TOTTEN      N/A     33  27  78 NE3       29.95S
ROLLA          NOT AVBL
RUGBY          NOT AVBL
 ***** THE ABOVE OBSERVATIONS ARE NON NWS ARE NOT QUALITY
        CONTROLLED AND MAY MIS-REPORT RAIN FOR SNOW...
$$

 *****  OTHER OBSERVATIONS SOUTHEAST NORTH DAKOTA *****

CITY           SKY/WX    TMP DP  RH WIND       PRES   REMARKS
COOPERSTOWN    MOCLDY    28  27  93 NE13G20   29.74S WCI  18
VALLEY CITY    CLOUDY    28  28 100 N14       29.73S WCI  17
OAKES          NOT AVBL
GWINNER        NOT AVBL
SHEYENNE NWR     N/A     28  26  91 N10       29.95S WCI  19
BUFFALO        NOT AVBL
WYNDMERE         N/A     28  27  93 VRB15       N/A  WCI  17
 ***** THE ABOVE OBSERVATIONS ARE NON NWS ARE NOT QUALITY
       CONTROLLED AND MAY MIS-REPORT RAIN FOR SNOW...
$$

  *****  WEATHER ACROSS NORTHERN MINNESOTA  *****

CITY           SKY/WX    TMP DP  RH WIND       PRES   REMARKS
FLAG ISLAND    CLOUDY    27  19  74 NE25G31   29.75F WCI  11
WARROAD        LGT SNOW  27  21  80 NE21G29   29.74F WCI  13
ROSEAU         LGT SNOW  27  21  80 NE14      29.73F WCI  15
HALLOCK        LGT SNOW  30  27  86 NE10      29.77F WCI  21
THF RVR FALLS  FLURRIES  26  23  88 NE15      29.72S WCI  14
6HR MIN TEMP:  26; 6HR MAX TEMP:  29; 6HR PCP: TRACE;

HALSTAD          N/A     27  25  91 N16         N/A  WCI  15
FOSSTON        LGT SNOW  23  21  93 N8        29.68S WCI  14
BAUDETTE       CLOUDY    24  17  74 NE13      29.71F WCI  12
6HR MIN TEMP:  24; 6HR MAX TEMP:  28; 6HR PCP: TRACE;

WASKISH        CLOUDY    25  19  80 N12       29.68S WCI  14
CROOKSTON      CLOUDY    28  25  86 NE9       29.74S WCI  20
$$
  *****  WEATHER ACROSS CENTRAL AND WEST MINNESOTA  *****

CITY           SKY/WX    TMP DP  RH WIND       PRES   REMARKS
BEMIDJI        FLURRIES  24  20  87 NE9       29.66R WCI  14
PARK RAPIDS    CLOUDY    27  20  75 N9        29.63R WCI  18
6HR MIN TEMP:  27; 6HR MAX TEMP:  29; 6HR PCP:  0.01;

WADENA         MIX PCPN  27  25  93 N5        29.63R WCI  21
DETROIT LAKES  MOCLDY    28  28 100 N5        29.66S WCI  23
MOORHEAD       MOCLDY    27  25  93 N6        29.71R WCI  20
FERGUS FALLS   CLOUDY    28  25  86 N8        29.66S WCI  20
ELBOW LAKE     CLOUDY    30  28  94 N10       29.65S WCI  21
6HR MIN TEMP:  29; 6HR MAX TEMP:  31;

MORRIS MN      CLOUDY    30  28  93 NW10      29.63F WCI  21
STAPLES        CLOUDY    27  27 100 N5        29.62S WCI  21
WHEATON        CLOUDY    28  25  86 N14       29.69S WCI  17
$$
  *****  WEATHER ELSEWHERE ACROSS MINNESOTA  *****

CITY           SKY/WX    TMP DP  RH WIND       PRES   REMARKS
DULUTH         CLOUDY    25  22  88 N9        29.58F WCI  15
6HR MIN TEMP:  25; 6HR MAX TEMP:  31;

INTRNTL FALLS  CLOUDY    23  15  71 NE10G20   29.69R WCI  12
6HR MIN TEMP:  23; 6HR MAX TEMP:  26; 6HR PCP:  0.01;

ELY            CLOUDY    21  18  86 NE5       29.62R WCI  15
CLOQUET        CLOUDY    27  21  80 N5        29.59F WCI  21
BRAINERD       CLOUDY    28  26  92 N8        29.61S WCI  20
6HR MIN TEMP:  28; 6HR MAX TEMP:  30; 6HR PCP:  0.02;

HIBBING        CLOUDY    22  19  89 N10       29.62R WCI  11
6HR MIN TEMP:  22; 6HR MAX TEMP:  27;

ALEXANDRIA     CLOUDY    29  26  89 N12       29.62S WCI  19
6HR MIN TEMP:  29; 6HR MAX TEMP:  31; 6HR PCP:  0.01;

SAINT CLOUD    CLOUDY    31  30  96 NW9       29.59F WCI  23
6HR MIN TEMP:  31; 6HR MAX TEMP:  33; 6HR PCP: TRACE;

MINNEAPOLIS    CLOUDY    36  30  79 N12       29.56F
6HR MIN TEMP:  36; 6HR MAX TEMP:  40; 6HR PCP: TRACE;

$$

  *****  WEATHER ACROSS SOUTH DAKOTA  *****

CITY           SKY/WX    TMP DP  RH WIND       PRES   REMARKS
SIOUX FALLS    CLOUDY    32  26  78 NW14      29.65F WCI  22
6HR MIN TEMP:  32; 6HR MAX TEMP:  35;

BROOKINGS      CLOUDY    28  23  81 N12       29.65F WCI  18
WATERTOWN      CLOUDY    27  22  81 N15       29.66S WCI  15
6HR MIN TEMP:  27; 6HR MAX TEMP:  29;

HURON          CLOUDY    30  25  81 N12       29.73S WCI  20
6HR MIN TEMP:  30; 6HR MAX TEMP:  34;

SISSETON         N/A     30  27  88 N15       29.68S WCI  19
ABERDEEN       FAIR      27  22  81 N8        29.73S WCI  19
6HR MIN TEMP:  27; 6HR MAX TEMP:  32; 6HR PCP: TRACE;

MITCHELL       CLOUDY    33  27  78 N9        29.73F
PIERRE         FAIR      26  22  84 CALM      29.73R
6HR MIN TEMP:  24; 6HR MAX TEMP:  47;

MOBRIDGE       CLOUDY    34  25  69 NE9       29.72S
RAPID CITY     FAIR      29  26  89 W5        29.69F WCI  24
6HR MIN TEMP:  28; 6HR MAX TEMP:  41;

$$

  *****  SOME WEATHER IN NEARBY STATES *****

CITY           SKY/WX    TMP DP  RH WIND       PRES   REMARKS
GLASGOW MT     FAIR      36  24  62 E12       29.68F
6HR MIN TEMP:  36; 6HR MAX TEMP:  50;

GREAT FALLS MT MOCLDY    40  38  93 SE7       29.60F
6HR MIN TEMP:  40; 6HR MAX TEMP:  50; 6HR PCP:  0.05;

CHEYENNE WY    CLOUDY    42  31  64 W9        29.67F
6HR MIN TEMP:  39; 6HR MAX TEMP:  48;

SCOTTSBLUFF NE CLOUDY    40  37  89 E8        29.66F
6HR MIN TEMP:  40; 6HR MAX TEMP:  53; 6HR PCP: TRACE;

OMAHA NE       CLOUDY    40  31  70 NW13      29.69S
6HR MIN TEMP:  40; 6HR MAX TEMP:  43;

DES MOINES IA  CLOUDY    40  34  79 NW17      29.59F
6HR MIN TEMP:  40; 6HR MAX TEMP:  46; 6HR PCP: TRACE;

DAVENPORT IA   RAIN      43  41  93 NW16      29.47F FOG
6HR MIN TEMP:  43; 6HR MAX TEMP:  50; 6HR PCP:  0.12;

CHICAGO IL     LGT RAIN  61  59  93 S9        29.39F FOG
6HR MIN TEMP:  60; 6HR MAX TEMP:  67; 6HR PCP:  0.21;

EAU CLAIRE WI  CLOUDY    36  31  82 N10       29.52S
6HR MIN TEMP:  36; 6HR MAX TEMP:  39;

LA CROSSE WI   CLOUDY    42  38  85 N14       29.50F
6HR MIN TEMP:  42; 6HR MAX TEMP:  45; 6HR PCP: TRACE;

$$

  *****  SOME NATIONAL WEATHER *****

CITY           SKY/WX    TMP DP  RH WIND       PRES   REMARKS
LA GUARDIA NY  DRZL/FOG  58  57  97 CALM      29.84F VSB 1/2



USA.gov is the U.S. government's official web portal to all federal, state and local government web resources and services.